Terug naar catalogus

STARLINK-30162

ActiefCommunicatieVLEO
NORAD 57446·PAYLOAD·🇺🇸 United States

Gelanceerd Jul 24, 2023 vanaf Cape Canaveral Space Force Station

Loading…

Volgende Passages (komende 24 uur)

TLE

VersSource: CelesTrak SupGP

Epoch: Sep 15, 2026, 01:45 UTC

1 57446C 23105S   26258.07340278 -.00005865  00000+0 -21253-3 0  2580
2 57446  43.0024 259.2637 0001323 257.7768 178.8600 15.27567879    14

Volg STARLINK-30162 in realtime met AllMySat

Download on the App Store